Simultaneous Nadir Overpasses (SNOs) Predictions

Prediction of SNOs between GOES-17 and METOP-B Satellite Orbit:

Table of predicted SNOs for the next 14.0 days since TLE Epoch: 11/25/2023
Index Date Time (GOES-17) GOES-17 Lat,Lon METOP-B Lat,Lon Distance(km) Time Diff (sec)
1 11/26/2023 04:32:01 0.02,-104.66 -0.25,-105.80 130.89 80
2 11/27/2023 04:08:41 0.01,-104.66 0.87,-100.81 438.29 80
3 11/28/2023 16:27:30 -0.00,-104.68 0.18,-105.36 78.93 80
4 11/29/2023 16:09:29 0.01,-104.68 -0.95,-100.37 490.87 80
5 12/01/2023 04:28:28 -0.02,-104.66 -0.07,-104.97 34.57 80
6 12/03/2023 16:26:36 0.04,-104.68 0.03,-104.52 18.08 80
7 12/06/2023 04:22:12 -0.04,-104.67 0.05,-104.11 63.40 80
8 12/07/2023 16:41:03 0.04,-104.69 0.91,-108.68 454.26 80
9 12/08/2023 16:23:01 0.05,-104.70 -0.18,-103.68 115.81 80
